TimeCDT,TemperatureF,Dew PointF,Humidity,Sea Level PressureIn,VisibilityMPH,Wind Direction,Wind SpeedMPH,Gust SpeedMPH,PrecipitationIn,Events,Conditions,WindDirDegrees,DateUTC
12:15 AM,54.0,51.1,90,30.11,10.0,Calm,Calm,-,N/A,,Clear,0,2013-07-01 05:15:00
12:35 AM,53.6,50.9,91,30.11,10.0,Calm,Calm,-,N/A,,Clear,0,2013-07-01 05:35:00
12:55 AM,53.1,50.7,92,30.11,10.0,Calm,Calm,-,N/A,,Clear,0,2013-07-01 05:55:00
1:15 AM,52.0,50.0,93,30.12,10.0,Calm,Calm,-,N/A,,Clear,0,2013-07-01 06:15:00
1:35 AM,52.9,50.5,92,30.12,10.0,Calm,Calm,-,N/A,,Clear,0,2013-07-01 06:35:00
1:55 AM,51.3,49.6,94,30.12,10.0,Calm,Calm,-,N/A,,Clear,0,2013-07-01 06:55:00
2:15 AM,50.9,49.3,94,30.12,10.0,Calm,Calm,-,N/A,,Clear,0,2013-07-01 07:15:00
2:35 AM,50.0,48.7,95,30.12,10.0,Calm,Calm,-,N/A,,Clear,0,2013-07-01 07:35:00
2:55 AM,51.1,49.3,94,30.12,10.0,Calm,Calm,-,N/A,,Clear,0,2013-07-01 07:55:00
3:15 AM,50.2,49.1,96,30.12,10.0,Calm,Calm,-,N/A,,Clear,0,2013-07-01 08:15:00
3:35 AM,49.6,48.0,94,30.13,10.0,Calm,Calm,-,N/A,,Clear,0,2013-07-01 08:35:00
3:55 AM,50.0,48.2,94,30.13,10.0,Calm,Calm,-,N/A,,Clear,0,2013-07-01 08:55:00
4:15 AM,49.1,47.5,94,30.13,10.0,Calm,Calm,-,N/A,,Clear,0,2013-07-01 09:15:00
4:35 AM,50.2,48.4,94,30.14,10.0,Calm,Calm,-,N/A,,Clear,0,2013-07-01 09:35:00
4:55 AM,48.9,47.5,95,30.15,10.0,Calm,Calm,-,N/A,,Clear,0,2013-07-01 09:55:00
5:15 AM,48.6,47.5,96,30.15,10.0,Calm,Calm,-,N/A,,Clear,0,2013-07-01 10:15:00
5:35 AM,48.4,47.3,96,30.16,10.0,Calm,Calm,-,N/A,,Clear,0,2013-07-01 10:35:00
5:55 AM,48.7,47.5,95,30.16,10.0,Calm,Calm,-,N/A,,Clear,0,2013-07-01 10:55:00
6:15 AM,50.2,48.6,94,30.16,10.0,Calm,Calm,-,N/A,,Clear,0,2013-07-01 11:15:00
6:35 AM,52.9,49.1,87,30.17,10.0,Calm,Calm,-,N/A,,Clear,0,2013-07-01 11:35:00
6:55 AM,54.7,50.9,87,30.17,10.0,Calm,Calm,-,N/A,,Clear,0,2013-07-01 11:55:00
7:15 AM,57.0,50.7,79,30.17,10.0,NE,3.5,-,N/A,,Clear,40,2013-07-01 12:15:00
7:35 AM,59.9,50.7,72,30.17,10.0,NNE,5.8,-,N/A,,Clear,30,2013-07-01 12:35:00
7:55 AM,62.6,50.0,63,30.18,10.0,NE,5.8,-,N/A,,Clear,40,2013-07-01 12:55:00
8:15 AM,64.4,49.3,58,30.18,10.0,ENE,5.8,-,N/A,,Clear,60,2013-07-01 13:15:00
8:35 AM,66.4,49.8,55,30.18,10.0,NE,3.5,-,N/A,,Clear,50,2013-07-01 13:35:00
8:55 AM,67.5,48.6,51,30.19,10.0,East,6.9,-,N/A,,Clear,90,2013-07-01 13:55:00
9:15 AM,69.1,48.7,48,30.19,10.0,East,8.1,-,N/A,,Clear,80,2013-07-01 14:15:00
9:35 AM,69.8,48.6,47,30.19,10.0,ENE,8.1,-,N/A,,Clear,60,2013-07-01 14:35:00
9:55 AM,70.2,48.6,46,30.18,10.0,East,6.9,-,N/A,,Clear,80,2013-07-01 14:55:00
10:15 AM,71.8,48.9,44,30.18,10.0,ENE,8.1,-,N/A,,Clear,70,2013-07-01 15:15:00
10:35 AM,72.7,48.6,42,30.18,10.0,NE,8.1,-,N/A,,Clear,40,2013-07-01 15:35:00
10:55 AM,72.9,48.4,42,30.18,10.0,ENE,5.8,-,N/A,,Clear,60,2013-07-01 15:55:00
11:15 AM,73.9,47.3,39,30.18,10.0,NNE,10.4,-,N/A,,Clear,20,2013-07-01 16:15:00
11:35 AM,74.5,48.4,40,30.18,10.0,East,6.9,-,N/A,,Clear,90,2013-07-01 16:35:00
11:55 AM,74.7,48.2,39,30.18,10.0,ENE,4.6,-,N/A,,Clear,60,2013-07-01 16:55:00
12:14 PM,75.2,48.2,38,30.18,10.0,NNE,10.4,-,N/A,,Clear,20,2013-07-01 17:14:00
12:35 PM,76.5,48.7,38,30.17,10.0,NNE,6.9,-,N/A,,Clear,30,2013-07-01 17:35:00
12:55 PM,77.2,49.3,37,30.17,10.0,ENE,8.1,-,N/A,,Clear,60,2013-07-01 17:55:00
1:15 PM,76.6,49.6,39,30.16,10.0,NNE,8.1,-,N/A,,Clear,20,2013-07-01 18:15:00
1:35 PM,77.2,50.2,39,30.16,10.0,East,8.1,-,N/A,,Scattered Clouds,80,2013-07-01 18:35:00
1:55 PM,77.4,49.3,37,30.16,10.0,NE,11.5,16.1,N/A,,Scattered Clouds,50,2013-07-01 18:55:00
2:15 PM,77.2,50.5,39,30.16,10.0,NE,9.2,-,N/A,,Mostly Cloudy,40,2013-07-01 19:15:00
2:35 PM,76.5,50.9,41,30.15,10.0,North,6.9,-,N/A,,Mostly Cloudy,360,2013-07-01 19:35:00
2:55 PM,77.7,51.4,40,30.15,10.0,NNE,3.5,-,N/A,,Scattered Clouds,20,2013-07-01 19:55:00
3:15 PM,78.6,51.3,38,30.14,10.0,East,3.5,-,N/A,,Scattered Clouds,90,2013-07-01 20:15:00
3:35 PM,78.1,51.1,39,30.14,10.0,East,9.2,-,N/A,,Mostly Cloudy,80,2013-07-01 20:35:00
3:55 PM,75.7,50.2,41,30.14,10.0,East,3.5,-,N/A,,Mostly Cloudy,80,2013-07-01 20:55:00
4:15 PM,78.3,51.4,39,30.14,10.0,North,5.8,-,N/A,,Scattered Clouds,10,2013-07-01 21:15:00
4:35 PM,78.1,50.9,39,30.13,10.0,East,5.8,-,N/A,,Scattered Clouds,90,2013-07-01 21:35:00
4:55 PM,78.3,50.5,38,30.13,10.0,ESE,4.6,-,N/A,,Scattered Clouds,110,2013-07-01 21:55:00
5:35 PM,75.2,51.8,44,30.13,10.0,NE,3.5,-,N/A,,Overcast,50,2013-07-01 22:35:00
5:55 PM,71.8,54.1,54,30.13,10.0,WNW,8.1,-,N/A,Rain,Light Rain,290,2013-07-01 22:55:00
6:15 PM,70.2,54.5,57,30.13,10.0,West,3.5,-,N/A,,Clear,270,2013-07-01 23:15:00
6:35 PM,69.8,54.7,59,30.13,10.0,Calm,Calm,-,N/A,,Scattered Clouds,0,2013-07-01 23:35:00
6:55 PM,68.9,55.0,61,30.15,10.0,North,11.5,17.3,N/A,Thunderstorm,Thunderstorm,360,2013-07-01 23:55:00
7:15 PM,67.8,56.1,66,30.14,4.0,WNW,3.5,11.5,0.06,Rain,Rain,290,2013-07-02 00:15:00
7:35 PM,66.6,60.8,82,30.13,10.0,Calm,Calm,-,0.06,,Mostly Cloudy,0,2013-07-02 00:35:00
7:55 PM,64.9,62.1,90,30.14,10.0,ENE,3.5,-,0.06,,Mostly Cloudy,60,2013-07-02 00:55:00
8:15 PM,65.5,59.0,80,30.14,10.0,ENE,6.9,-,N/A,,Overcast,70,2013-07-02 01:15:00
8:35 PM,64.6,59.0,82,30.14,10.0,Calm,Calm,-,N/A,,Overcast,0,2013-07-02 01:35:00
8:55 PM,64.6,56.8,76,30.14,10.0,ENE,4.6,-,N/A,,Overcast,60,2013-07-02 01:55:00
9:15 PM,64.4,55.9,74,30.15,10.0,ENE,6.9,-,N/A,,Mostly Cloudy,70,2013-07-02 02:15:00
9:35 PM,64.8,54.1,68,30.16,10.0,East,5.8,-,N/A,,Scattered Clouds,80,2013-07-02 02:35:00
9:55 PM,64.8,52.7,65,30.16,10.0,ENE,5.8,-,N/A,,Mostly Cloudy,70,2013-07-02 02:55:00
10:15 PM,64.2,52.3,65,30.16,10.0,ENE,5.8,-,N/A,,Overcast,70,2013-07-02 03:15:00
10:35 PM,63.5,51.6,65,30.16,10.0,ENE,6.9,-,N/A,,Scattered Clouds,60,2013-07-02 03:35:00
10:55 PM,62.8,51.6,67,30.16,10.0,ENE,4.6,-,N/A,,Scattered Clouds,70,2013-07-02 03:55:00
11:15 PM,63.0,52.3,68,30.16,10.0,East,4.6,-,N/A,,Mostly Cloudy,80,2013-07-02 04:15:00
11:35 PM,62.6,52.3,69,30.16,10.0,East,5.8,-,N/A,,Overcast,80,2013-07-02 04:35:00
11:55 PM,61.7,52.0,70,30.16,10.0,East,5.8,-,N/A,,Mostly Cloudy,90,2013-07-02 04:55:00